This is the latest recevied weather packets stored in our database for station/object DB5WY-13. If no packets are shown the sender has not sent any weather packets the latest 10 day(s).
| Time | Temp. | Humidity | Pressure | Rain* | Wind** | Luminosity | Snow |
|---|---|---|---|---|---|---|---|
| 1777620016 | 13.89° C | 38% | 1028.5 hPa | 0 mm | - | - | - |
| 1777619416 | 13.33° C | 37% | 1028.6 hPa | 0 mm | - | - | - |
| 1777618816 | 13.33° C | 38% | 1028.7 hPa | 0 mm | - | - | - |
| 1777618216 | 13.89° C | 37% | 1028.6 hPa | 0 mm | - | - | - |
| 1777617616 | 13.89° C | 38% | 1028.5 hPa | 0 mm | - | - | - |
| 1777617016 | 13.33° C | 39% | 1028.6 hPa | 0 mm | - | - | - |
| 1777616416 | 13.33° C | 40% | 1028.5 hPa | 0 mm | - | - | - |
| 1777615816 | 12.78° C | 42% | 1028.5 hPa | 0 mm | - | - | - |
| 1777615216 | 12.22° C | 42% | 1028.6 hPa | 0 mm | - | - | - |
| 1777614616 | 11.67° C | 43% | 1028.4 hPa | 0 mm | - | - | - |
| 1777614016 | 11.67° C | 44% | 1028.3 hPa | 0 mm | - | - | - |
| 1777613416 | 11.11° C | 45% | 1028.2 hPa | 0 mm | - | - | - |
| 1777612816 | 10.56° C | 46% | 1028.1 hPa | 0 mm | - | - | - |
| 1777612216 | 10° C | 48% | 1028.2 hPa | 0 mm | - | - | - |
| 1777611616 | 9.44° C | 50% | 1027.9 hPa | 0 mm | - | - | - |
| 1777611016 | 8.89° C | 52% | 1028.1 hPa | 0 mm | - | - | - |
| 1777610416 | 8.33° C | 54% | 1028 hPa | 0 mm | - | - | - |
| 1777609816 | 7.22° C | 55% | 1027.9 hPa | 0 mm | - | - | - |
| 1777609216 | 6.67° C | 57% | 1027.9 hPa | 0 mm | - | - | - |
| 1777608616 | 6.11° C | 58% | 1027.7 hPa | 0 mm | - | - | - |
| 1777608016 | 6.11° C | 58% | 1027.7 hPa | 0 mm | - | - | - |
| 1777607416 | 6.11° C | 58% | 1027.7 hPa | 0 mm | - | - | - |
| 1777606816 | 6.11° C | 57% | 1027.9 hPa | 0 mm | - | - | - |
| 1777606217 | 6.11° C | 57% | 1027.8 hPa | 0 mm | - | - | - |
| 1777605616 | 6.11° C | 58% | 1027.8 hPa | 0 mm | - | - | - |
* Rain latest hour (hover to see other rain measurements)
** Current wind speed in m/s (hover to see current wind gust speed)